OH2HCY-3 Weather Reports


Display with metric or nautical units.
time (UTC)temp
F
wind
direction
speed
MPH
gust
MPH
rain 1hr
in
rain 24hr
in
rain mn
in
humidity
%
barometer
mb
20260507064423 48 151 2.0 8.0 0.00 0.00 0.00 34 1016.1
20260507062747 48 110 3.0 8.0 0.00 0.00 0.00 35 1015.9
20260507060806 46 136 2.0 8.0 0.00 0.00 0.00 38 1015.8
20260507054931 46 120 2.0 7.0 0.00 0.00 0.00 37 1015.8
20260507053306 45 128 2.0 9.0 0.00 0.00 0.00 39 1015.7
20260507045549 0 104 2.0 6.0 0.00 0.00 0.00 41 1015.6
20260507045547 43 104 2.0 6.0 0.00 0.00 0.00 41 1015.6
20260506192811 39 122 3.0 0.0 0.00 0.00 0.00 71 1014.4
20260506192806 39 122 3.0 5.0 0.00 0.00 0.00 71 1014.4
20260506190811 40 120 3.0 6.0 0.00 0.00 0.00 68 1014.4
20260506183146 43 130 2.0 5.0 0.00 0.00 0.00 61 1014.2
20260506181251 45 177 3.0 6.0 0.00 0.00 0.00 57 1014.2
20260506175532 46 191 3.0 8.0 0.00 0.00 0.00 51 1014.2
20260506175529 46 191 3.0 8.0 0.00 0.00 0.00 51 1014.2
20260506173906 47 195 3.0 6.0 0.00 0.00 0.00 47 1014.2
20260506172201 48 187 3.0 6.0 0.00 0.00 0.00 44 1014.2
20260506170316 49 203 3.0 6.0 0.00 0.00 0.00 41 1014.1
20260506164612 0 210 4.0 4.0 0.00 0.00 0.00 31
20260506162951 50 224 4.0 10.0 0.00 0.00 0.00 39 1013.9
20260506161041 50 228 3.0 7.0 0.00 0.00 0.00 37 1013.9
20260506155117 50 223 4.0 8.0 0.00 0.00 0.00 38 1013.9
20260506153506 50 238 4.0 11.0 0.00 0.00 0.00 39 1014.0
20260506151701 49 229 4.0 10.0 0.00 0.00 0.00 43 1014.0
20260506145951 49 228 6.0 15.0 0.00 0.00 0.00 41 1014.1
20260506144011 48 200 5.0 14.0 0.00 0.00 0.00 45 1014.2
20260506142306 49 212 6.0 13.0 0.00 0.00 0.00 44 1014.4
20260506140602 49 206 4.0 10.0 0.00 0.00 0.00 44 1014.3
20260506134732 49 208 5.0 10.0 0.00 0.00 0.00 44 1014.2
20260506133041 49 208 6.0 13.0 0.00 0.00 0.00 44 1014.3
20260506131445 48 211 8.0 15.0 0.00 0.00 0.00 46 1014.3
20260506125806 48 217 8.0 17.0 0.00 0.00 0.00 45 1014.3
20260506123848 46 211 9.0 19.0 0.00 0.00 0.00 1014.1
20260506122111 48 230 7.0 16.0 0.00 0.00 0.00 42 1014.4
20260506120226 48 198 7.0 19.0 0.00 0.00 0.00 42 1014.4
20260506114531 49 221 7.0 17.0 0.00 0.00 0.00 47 1014.4
20260506112912 48 232 9.0 21.0 0.00 0.00 0.00 48
20260506112909 48 232 9.0 21.0 0.00 0.00 0.00 48 1014.5
20260506111107 48 221 6.0 18.0 0.00 0.00 0.00 49 1014.4
20260506105246 46 211 7.0 17.0 0.00 0.00 0.00 52 1014.5
20260506103546 47 207 7.0 18.0 0.00 0.00 0.00 48 1014.4
20260506101856 48 188 6.0 14.0 0.00 0.00 0.00 52 1014.3
20260506100032 48 202 8.0 16.0 0.00 0.00 0.00 50 1014.1
20260506094431 49 208 7.0 13.0 0.00 0.00 0.00 46 1013.9
20260506092516 49 190 4.0 14.0 0.00 0.00 0.00 45 1013.7
20260506090747 50 179 5.0 12.0 0.00 0.00 0.00 1013.5
20260506085046 49 211 5.0 11.0 0.00 0.00 0.00 38 1013.5
20260506083446 48 235 5.0 12.0 0.00 0.00 0.00 45 1013.4
20260506081807 48 187 5.0 14.0 0.00 0.00 0.00 43 1013.5
20260506070457 0 222 5.0 10.0 0.00 0.00 0.00 43 1013.2